[[{"header":{"parameterUnit":"m.s-1","parameterCategory":1,"la1":30.2991,"la2":30.254,"lo1":-89.0895,"lo2":-89.0444,"dy":0.0017,"dx":0.0017,"nx":28,"ny":28,"refTime":"2024-08-17T21:00:00:Z","depth":0,"parameterNumber":2,"parameterNumberName":"U-component_of_WINDS"},"data":[0,0,0,0,0,0,0,0,0,0,0,0,0,0,0,0,0,0,0,0,0,0,0,0,0,0,0,0,0,0,0,0,0,0,0,0,0,0,0,0,0,0,0,0,0,0,0,0,0,0,0,0,0,0,0,0,0,0,3.2408,3.241,0,3.2575,3.2577,3.2579,3.2639,3.2639,3.2638,3.2638,3.282,3.2825,3.283,0,0,0,0,0,0,0,0,0,0,0,0,0,3.2155,3.216,3.2408,3.241,3.2412,3.2574,3.2577,3.2579,3.2639,3.2639,3.2638,3.2637,3.2818,3.2824,3.2831,0,0,0,0,0,0,0,0,0,0,0,0,0,3.2288,3.2161,3.2408,3.2462,3.2468,3.2574,3.2577,3.258,3.264,3.2639,3.2638,3.2637,3.2816,3.2824,3.2832,3.29,0,0,3.2856,3.286,0,0,0,0,0,0,0,0,3.2281,3.2297,3.2452,3.2458,3.2465,3.2585,3.2555,3.2687,3.264,3.2575,3.2638,3.2636,3.2743,3.2757,3.2791,3.2908,3.2916,3.2857,3.2862,3.2865,3.2868,0,0,0,0,0,0,0,3.2271,3.2291,3.2474,3.2454,3.2462,3.2482,3.25,3.258,3.2662,3.258,3.2585,3.2603,3.2747,3.2783,3.2795,3.2919,3.2857,3.2864,3.2869,3.2872,3.3105,3.3107,0,0,0,0,0,0,3.2251,3.2283,3.2469,3.2479,3.2368,3.2487,3.2507,3.2548,3.2661,3.2678,3.2604,3.2606,3.2769,3.2786,3.2802,3.2891,3.2865,3.2873,3.2878,3.3104,3.3106,3.3107,0,0,0,0,0,0,3.2246,3.2267,3.2462,3.2382,3.2409,3.2492,3.2538,3.2552,3.2587,3.2679,3.2695,3.2625,3.2769,3.2791,3.2875,3.2898,3.2877,3.2884,3.3102,3.3105,3.3106,3.3068,0,0,0,0,0,0,3.2238,3.2265,3.2288,3.2382,3.2412,3.2528,3.2539,3.2555,3.26,3.2603,3.2703,3.2719,3.277,3.2863,3.2883,3.2909,3.289,3.3101,3.3103,3.3106,3.3068,3.3069,3.307,0,0,0,0,0,3.2229,3.2273,3.2289,3.2311,3.2443,3.2529,3.2547,3.2602,3.2601,3.2628,3.2688,3.2716,3.2893,3.2871,3.2894,3.2923,3.31,3.3103,3.3106,3.3068,3.3069,3.307,0,0,0,0,0,0,3.2182,3.2286,3.2305,3.238,3.2445,3.2539,3.2574,3.2601,3.2671,3.2672,3.2741,3.2763,3.2843,3.2892,3.2866,3.2997,3.2998,3.3006,3.2961,3.2963,3.2964,3.2951,3.2897,0,0,0,0,0,3.218,3.2238,3.2327,3.2385,3.2416,3.2489,3.2529,3.2566,3.2638,3.2667,3.2732,3.2805,3.2877,3.2923,3.2995,3.3076,3.3101,3.3108,3.3109,3.3109,3.3115,3.3166,3.3171,3.3117,3.3117,3.3117,0,0,3.2178,3.2241,3.2274,3.2377,3.2431,3.2494,3.2512,3.2577,3.2625,3.2678,3.276,3.2812,3.2898,3.2981,3.3022,3.3025,3.3136,3.3113,3.3112,3.3119,3.3169,3.3174,3.3179,3.3119,3.3119,3.3118,0,0,3.2204,3.2257,3.2311,3.2365,3.2447,3.2496,3.2509,3.26,3.2635,3.2719,3.2761,3.2822,3.2944,3.3004,3.3051,3.3104,3.3133,3.3126,3.313,3.3178,3.3182,3.3186,3.3207,3.3214,3.3132,3.3131,3.3131,0,3.2191,3.2282,3.2337,3.2399,3.2445,3.2493,3.2552,3.2603,3.2706,3.2739,3.274,3.2896,3.2957,3.3057,3.307,3.3105,3.3126,3.3114,3.3176,3.3181,3.3186,3.3207,3.3214,3.313,3.313,3.313,3.313,0,3.2264,3.2327,3.2362,3.2455,3.2506,3.2566,3.2634,3.268,3.2713,3.2764,3.2851,3.2926,3.3015,3.3042,3.3076,3.3148,3.3148,3.3162,3.3164,3.3189,3.3209,3.3218,3.3128,3.3128,3.3129,3.3129,0,0,3.2264,3.2388,3.24,3.2444,3.2539,3.2591,3.2657,3.274,3.2778,3.2849,3.2908,3.3011,3.3026,3.3079,3.3122,3.3164,3.3204,3.3174,3.3177,3.3177,3.3291,3.3279,3.3287,3.3224,3.3226,3.3227,3.3284,0,3.2304,3.2415,3.2468,3.2559,3.262,3.2669,3.2726,3.2794,3.2843,3.2907,3.2964,3.3036,3.3049,3.3082,3.3126,3.3189,3.3227,3.3186,3.3283,3.3286,3.3259,3.3297,3.3285,3.3334,3.3292,3.3294,3.3295,0,3.2364,3.243,3.2526,3.2616,3.2644,3.2693,3.2776,3.2834,3.2914,3.2948,3.3007,3.3049,3.3124,3.3122,3.3229,3.32,3.3244,3.3282,3.3285,3.3296,3.3291,3.3311,3.3351,3.3359,3.3308,3.3307,3.3306,0,3.2356,3.247,3.2543,3.2579,3.2685,3.272,3.2767,3.2845,3.2892,3.2967,3.2999,3.3082,3.3128,3.3194,3.3259,3.3251,3.3361,3.3364,3.3395,3.3393,3.3415,3.3413,3.3464,3.3443,3.3443,3.3443,3.3442,0,3.2395,3.2452,3.254,3.2585,3.2652,3.2715,3.2782,3.2833,3.2903,3.2962,3.3011,3.3067,3.3149,3.3217,3.3269,3.3351,3.3372,3.3405,3.3418,3.34,3.3396,3.343,3.3428,3.3445,3.3444,3.3444,3.3443,0,3.2396,3.2457,3.254,3.2633,3.2659,3.2704,3.2787,3.2835,3.2888,3.2963,3.2985,3.3069,3.3152,3.3223,3.3333,3.3368,3.3454,3.347,3.3425,3.3432,3.346,3.3456,3.3534,3.3549,3.3517,3.3517,3.3517,0,3.2417,3.2461,3.2559,3.26,3.2645,3.2711,3.2759,3.2825,3.2874,3.297,3.3007,3.3093,3.3164,3.3295,3.3369,3.3455,3.3474,3.3495,3.3487,3.3469,3.3476,3.3472,3.3478,3.3495,3.3495,3.3495,3.3495,0,3.2448,3.2476,3.254,3.2617,3.2672,3.2737,3.2804,3.2836,3.2915,3.2969,3.3052,3.3107,3.3218,3.3304,3.3398,3.3453,3.3489,3.3497,3.3509,3.3492,3.3464,3.3481,3.3426,3.3495,3.3495,3.3495,3.3495,3.3495,3.2461,3.2503,3.2578,3.265,3.2706,3.2768,3.2818,3.2876,3.2945,3.3037,3.3074,3.3159,3.3243,3.3372,3.3426,3.3498,3.3504,3.352,3.3525,3.3528,3.3526,3.3453,3.3515,3.3516,3.3516,3.3516,3.3516,0,3.2495,3.2545,3.2611,3.27,3.2758,3.2783,3.2859,3.2907,3.298,3.3052,3.3121,3.3219,3.3303,3.3384,3.3474,3.3515,3.3535,3.3537,3.3535,3.3547,3.3515,3.3496,3.352,3.352,3.352,3.352,3.352,3.352,3.2519,3.2593,3.263,3.2735,3.2787,3.2867,3.2908,3.2968,3.3025,3.313,3.3198,3.3249,3.3328,3.3424,3.3504,3.3526,3.3558,3.3555,3.3583,3.3551,3.3549,3.3548,3.353,3.3561,3.3562,3.3609,3.361,3.361]},{"header":{"parameterUnit":"m.s-1","parameterCategory":1,"la1":30.2991,"la2":30.254,"lo1":-89.0895,"lo2":-89.0444,"dy":0.0017,"dx":0.0017,"nx":28,"ny":28,"refTime":"2024-08-17T21:00:00:Z","depth":0,"parameterNumber":3,"parameterNumberName":"V-component_of_WINDS"},"data":[0,0,0,0,0,0,0,0,0,0,0,0,0,0,0,0,0,0,0,0,0,0,0,0,0,0,0,0,0,0,0,0,0,0,0,0,0,0,0,0,0,0,0,0,0,0,0,0,0,0,0,0,0,0,0,0,0,0,0.1115,0.1116,0,0.1257,0.1259,0.126,0.1292,0.1291,0.129,0.1289,0.143,0.1434,0.1439,0,0,0,0,0,0,0,0,0,0,0,0,0,0.0863,0.0868,0.1114,0.1116,0.1118,0.1257,0.1259,0.1261,0.1292,0.1291,0.129,0.1288,0.1428,0.1434,0.144,0,0,0,0,0,0,0,0,0,0,0,0,0,0.0986,0.0869,0.1114,0.115,0.1155,0.1256,0.1259,0.1261,0.1292,0.1291,0.1289,0.1288,0.1427,0.1433,0.144,0.1514,0,0,0.1462,0.1465,0,0,0,0,0,0,0,0,0.0979,0.0995,0.1143,0.1148,0.1154,0.1255,0.1222,0.1346,0.1293,0.124,0.1289,0.1287,0.1373,0.1384,0.1414,0.1521,0.1527,0.1462,0.1467,0.147,0.1472,0,0,0,0,0,0,0,0.097,0.0989,0.1171,0.1145,0.1152,0.1158,0.1173,0.1246,0.1313,0.1245,0.1247,0.1264,0.1375,0.1407,0.1417,0.1529,0.1462,0.1469,0.1473,0.1476,0.17,0.1702,0,0,0,0,0,0,0.0956,0.0981,0.1166,0.1175,0.1061,0.1163,0.1181,0.1224,0.1312,0.1324,0.1265,0.1265,0.1396,0.1409,0.1423,0.1513,0.147,0.1476,0.148,0.1698,0.17,0.1702,0,0,0,0,0,0,0.095,0.0972,0.116,0.1079,0.1104,0.1169,0.1217,0.1228,0.126,0.1328,0.1339,0.1286,0.1395,0.1413,0.1491,0.1519,0.1479,0.1486,0.1696,0.1699,0.1701,0.1696,0,0,0,0,0,0,0.0943,0.097,0.1,0.108,0.1108,0.1228,0.1219,0.1232,0.1272,0.1273,0.135,0.1362,0.1395,0.148,0.1498,0.1528,0.1491,0.1694,0.1697,0.1701,0.1694,0.1698,0.1701,0,0,0,0,0,0.0934,0.0992,0.1002,0.1024,0.1147,0.123,0.1246,0.1285,0.1275,0.1304,0.1348,0.1359,0.1513,0.1488,0.1508,0.154,0.1692,0.1696,0.17,0.1692,0.1697,0.1701,0,0,0,0,0,0,0.0914,0.1004,0.1015,0.1101,0.1158,0.1235,0.1274,0.1289,0.1349,0.1347,0.1391,0.1408,0.1483,0.152,0.149,0.1615,0.1602,0.161,0.1589,0.1594,0.1598,0.1587,0.1497,0,0,0,0,0,0.0919,0.0981,0.1055,0.1124,0.1152,0.1208,0.1245,0.1271,0.133,0.1354,0.1403,0.1459,0.152,0.1559,0.1619,0.1699,0.1715,0.1731,0.1734,0.1737,0.1744,0.1786,0.1794,0.1715,0.1715,0.1715,0,0,0.0931,0.0988,0.1024,0.1121,0.1168,0.1228,0.1228,0.1292,0.1337,0.1363,0.144,0.1478,0.1543,0.1622,0.1659,0.1655,0.1769,0.1742,0.1744,0.1749,0.1791,0.1798,0.1805,0.1718,0.1717,0.1717,0,0,0.0984,0.1034,0.1096,0.1143,0.1214,0.1251,0.1265,0.1341,0.1367,0.1445,0.1466,0.1518,0.1622,0.1667,0.1704,0.1771,0.1783,0.1789,0.1809,0.185,0.1856,0.1862,0.1884,0.1892,0.1795,0.1795,0.1795,0,0.099,0.1084,0.1125,0.1189,0.123,0.1258,0.1319,0.1362,0.1448,0.1475,0.1469,0.1599,0.1645,0.1734,0.175,0.1779,0.1796,0.1781,0.1852,0.1859,0.1864,0.1886,0.1895,0.1796,0.1796,0.1796,0.1796,0,0.1086,0.115,0.1191,0.1275,0.1321,0.1383,0.1432,0.1473,0.1493,0.153,0.1607,0.1663,0.1734,0.1757,0.1778,0.1848,0.1843,0.1844,0.1832,0.1871,0.1892,0.1901,0.1796,0.1796,0.1796,0.1796,0,0,0.113,0.1236,0.125,0.1288,0.1368,0.1417,0.1479,0.155,0.1583,0.1641,0.1692,0.1779,0.178,0.1822,0.1847,0.1883,0.1931,0.188,0.1882,0.1886,0.201,0.2008,0.2017,0.1939,0.1941,0.1942,0.2004,0,0.1192,0.1306,0.1345,0.1438,0.1497,0.1523,0.1576,0.163,0.1665,0.1718,0.1756,0.1816,0.1814,0.1839,0.1876,0.1917,0.1956,0.1913,0.1985,0.1987,0.1968,0.2028,0.2027,0.2082,0.2012,0.2014,0.2015,0,0.128,0.134,0.1439,0.151,0.1536,0.1584,0.1651,0.1702,0.1762,0.1785,0.183,0.1852,0.1915,0.1899,0.1986,0.1956,0.1987,0.2011,0.2014,0.2022,0.2003,0.2036,0.2101,0.2109,0.2029,0.2027,0.2026,0,0.13,0.1406,0.1479,0.1511,0.1596,0.1628,0.1664,0.1723,0.1762,0.182,0.1845,0.1908,0.1943,0.199,0.2027,0.2013,0.2109,0.2097,0.2128,0.2127,0.2147,0.2145,0.2217,0.2169,0.2169,0.2168,0.2168,0,0.1365,0.1424,0.149,0.1534,0.1601,0.1643,0.1707,0.1745,0.1796,0.1847,0.1873,0.1919,0.1967,0.2019,0.2048,0.2114,0.2129,0.2148,0.2155,0.2145,0.2143,0.2166,0.2163,0.2171,0.217,0.217,0.2169,0,0.1399,0.1446,0.1527,0.16,0.162,0.1665,0.1727,0.177,0.1806,0.187,0.1887,0.1942,0.2004,0.2047,0.2126,0.2146,0.2217,0.2223,0.2197,0.22,0.2228,0.2225,0.2317,0.233,0.2274,0.2274,0.2275,0,0.1437,0.1483,0.1562,0.1598,0.1635,0.1694,0.1734,0.1777,0.1817,0.1888,0.1921,0.1986,0.204,0.2137,0.2183,0.2243,0.2251,0.2279,0.226,0.2248,0.225,0.2246,0.225,0.2281,0.2282,0.2282,0.2283,0,0.1498,0.1519,0.1577,0.1642,0.169,0.1743,0.1796,0.1824,0.1876,0.1919,0.1984,0.2026,0.2107,0.2169,0.2233,0.2268,0.2283,0.2288,0.2298,0.2289,0.2271,0.2279,0.2204,0.2286,0.2285,0.2285,0.2285,0.2285,0.1535,0.1577,0.1638,0.1701,0.1746,0.1795,0.1839,0.188,0.1935,0.2006,0.2027,0.2093,0.2149,0.2238,0.2273,0.2324,0.2322,0.2337,0.234,0.2343,0.2342,0.2263,0.2336,0.2336,0.2336,0.2336,0.2336,0,0.1596,0.1637,0.1695,0.1769,0.1818,0.1829,0.1888,0.1928,0.1987,0.2039,0.2091,0.2164,0.2224,0.2274,0.2336,0.2367,0.2375,0.2382,0.2379,0.2387,0.2342,0.2326,0.2374,0.2374,0.2374,0.2374,0.2374,0.2374,0.1634,0.1705,0.1732,0.1825,0.1864,0.1931,0.1964,0.2008,0.205,0.213,0.2181,0.2214,0.2265,0.233,0.2385,0.2398,0.2418,0.2423,0.2437,0.2394,0.239,0.2386,0.2372,0.2428,0.2428,0.2478,0.2478,0.2478]}]]